This is the latest recevied weather packets stored in our database for station/object EA2MKR. If no packets are shown the sender has not sent any weather packets the latest 10 day(s).
| Time | Temp. | Humidity | Pressure | Rain* | Wind** | Luminosity | Snow |
|---|---|---|---|---|---|---|---|
| 1778080460 | 12.22° C | 78% | 950.4 hPa | 0 mm | - | - | - |
| 1778080160 | 12.22° C | 78% | 950.4 hPa | 0 mm | - | - | - |
| 1778079859 | 12.78° C | 76% | 950.3 hPa | 0 mm | - | - | - |
| 1778079560 | 12.78° C | 75% | 950.2 hPa | 0 mm | - | - | - |
| 1778079259 | 12.78° C | 74% | 950.3 hPa | 0 mm | - | - | - |
| 1778078959 | 13.33° C | 75% | 950.3 hPa | 0 mm | - | - | - |
| 1778078730 | 13.33° C | 77% | 950.3 hPa | 0 mm | - | - | - |
| 1778078359 | 12.78° C | 76% | 950.3 hPa | 0 mm | - | - | - |
| 1778078129 | 13.33° C | 72% | 950.3 hPa | 0 mm | - | - | - |
| 1778077829 | 13.89° C | 75% | 950.4 hPa | 0 mm | - | - | - |
| 1778077530 | 13.33° C | 75% | 950.4 hPa | 0 mm | - | - | - |
| 1778077159 | 13.33° C | 74% | 950.4 hPa | 0 mm | - | - | - |
| 1778076859 | 13.33° C | 73% | 950.4 hPa | 0 mm | - | - | - |
| 1778076558 | 13.33° C | 74% | 950.5 hPa | 0 mm | - | - | - |
| 1778076259 | 13.33° C | 73% | 950.5 hPa | 0 mm | - | - | - |
| 1778075958 | 13.89° C | 71% | 950.6 hPa | 0 mm | - | - | - |
| 1778075659 | 13.89° C | 75% | 950.7 hPa | 0 mm | - | - | - |
| 1778075358 | 13.33° C | 74% | 950.7 hPa | 0 mm | - | - | - |
| 1778075058 | 12.78° C | 74% | 950.6 hPa | 0 mm | - | - | - |
| 1778074757 | 12.78° C | 76% | 950.6 hPa | 0 mm | - | - | - |
| 1778074458 | 12.78° C | 74% | 950.6 hPa | 0 mm | - | - | - |
| 1778074157 | 12.22° C | 73% | 950.6 hPa | 0 mm | - | - | - |
| 1778073858 | 12.22° C | 73% | 950.7 hPa | 0 mm | - | - | - |
| 1778073628 | 12.22° C | 73% | 950.7 hPa | 0 mm | - | - | - |
| 1778073257 | 12.78° C | 75% | 950.6 hPa | 0 mm | - | - | - |
* Rain latest hour (hover to see other rain measurements)
** Current wind speed in m/s (hover to see current wind gust speed)